Find Local Weather

World > North America > United States > Connecticut

North Haven, Connecticut Regional Weather

Lat: 41.38N, Lon: 72.86W
Wx Zone: CTZ006
Warning FLW WEATHER ALERT - (More Info. Click Here) Warning
Feedback
Expires:201812151700;;837654
ASUS41 KOKX 151614
RWROKX

Regional Weather Roundup
National Weather Service New York NY
1100 AM EST SAT DEC 15 2018

Note: "FAIR" indicates few or no clouds below 12,000 feet with no
significant weather and/or obstructions to visibility.


CTZ002-004>006-009-010-012-RIZ004-006-007-MAZ004-011-015-151700-
Southern New England

 In CT
  
CITY           SKY/WX    TMP DP  RH WIND       PRES   REMARKS
Bradley Intl   PTSUNNY   46  46 100 CALM      30.18F FOG              
Hartford       CLOUDY    48  46  93 CALM      30.18F FOG              
Danbury        CLOUDY    46  43  89 CALM      30.17F FOG              
Wtrbury/Oxford PTSUNNY   47  47 100 CALM      30.17F                  
Norwalk Harbor   N/A     45 N/A N/A N6          N/A                   
Bridgeport     CLOUDY    48  47  96 NE6       30.16F FOG              
Meriden        CLOUDY    48  45  89 CALM      30.17F                  
New Haven      CLOUDY    50  49  96 CALM      30.16F FOG              
Chester        CLOUDY    50  50 100 CALM      30.16F                  
Groton         LGT RAIN  49  48  97 NE3       30.17F FOG              
Willimantic    CLOUDY    47  47 100 CALM      30.18F                  

 In RI
  
CITY           SKY/WX    TMP DP  RH WIND       PRES   REMARKS
Providence     CLOUDY    49  48  97 SW3       30.18F                  
Block Island   LGT RAIN  46  46 100 N8        30.18F FOG              
Westerly       LGT RAIN  51  50  96 N3        30.19F FOG              
 
In MA
  
CITY           SKY/WX    TMP DP  RH WIND       PRES   REMARKS
Boston         NOT AVBL                                               
Worcester      FAIR      47  42  83 NW7       30.16F                  
Westfield      CLOUDY    46  42  86 CALM      30.18F                  
Provincetown   CLOUDY    48  48 100 SW7       30.18F                  
Nantucket        N/A     49  48  97 N7        30.18F FOG              
$$


SKY/WX - Weather  TMP - Temperature  DP - Dew Point  RH - Relative Humidity
WIND - Wind Direction/Speed PRES - Barometric Pressure